Regional Weather Roundup
Issued by NWS Little Rock, AR

Home | Current Version | Previous Version | Text Only | Print | Product List | Glossary On
Versions: 1 2 3 4 5 6 7 8 9 10 11 12 13 14 15 16 17 18 19 20 21 22 23 24 25 26 27 28 29 30 31
000
ASUS44 KLZK 242305
RWRLZK

WEATHER ROUNDUP FOR ARKANSAS
NATIONAL WEATHER SERVICE LITTLE ROCK AR
600 PM CDT SAT JUN 24 2017

NOTE: "FAIR" INDICATES FEW OR NO CLOUDS BELOW 12,000 FEET WITH NO
SIGNIFICANT WEATHER AND/OR OBSTRUCTIONS TO VISIBILITY.

ARZ001-003-010-029-250000-
NORTHWEST ARKANSAS

CITY           SKY/WX    TMP DP  RH WIND       PRES   REMARKS
FAYETTEVILLE   PTSUNNY   77  56  48 NE8       30.15F
FORT SMITH     PTSUNNY   81  58  45 NE7       30.12S
HARRISON       PTSUNNY   76  55  48 VRB5      30.17S
BENTONVILLE    SUNNY     79  50  36 N9        30.18S
ROGERS         SUNNY     77  53  43 N7        30.18S
SILOAM SPGS    CLOUDY    79  52  38 NE6       30.15F
HIGHFILL       SUNNY     81  54  39 NE8       30.16F
SPRINGDALE     MOSUNNY   79  54  41 NE9       30.18F
$$

ARZ004-005-016-250000-
NORTH CENTRAL ARKANSAS

CITY           SKY/WX    TMP DP  RH WIND       PRES   REMARKS
BATESVILLE     SUNNY     81  57  44 NW5       30.12S
FLIPPIN        CLOUDY   N/A N/A N/A N6        30.12S
MTN HOME       PTSUNNY   77  55  46 CALM      30.14
$$

ARZ040-041-250000-
WEST CENTRAL ARKANSAS

CITY           SKY/WX    TMP DP  RH WIND       PRES   REMARKS
MENA           MOSUNNY   81  59  47 NE6       30.14S
MOUNT IDA      PTSUNNY   81  57  43 VRB3      30.11S
$$

ARZ009-017-025-026-028-250000-
NORTHEAST ARKANSAS

CITY           SKY/WX    TMP DP  RH WIND       PRES   REMARKS
CORNING        LGT RAIN  79  57  47 NW13      30.11S
JONESBORO      MOSUNNY   82  59  45 N5        30.09F
WALNUT RIDGE   SUNNY     81  55  41 N12       30.10S
BLYTHEVILLE    SUNNY     80  61  52 N7        30.09F
$$

ARZ022-023-033-042-044-250000-
CENTRAL ARKANSAS

CITY           SKY/WX    TMP DP  RH WIND       PRES   REMARKS
LITTLE ROCK    PTSUNNY   80  60  50 N9        30.11R
N LITTLE ROCK    N/A     79  63  58 NE6       30.11R
JACKSONVILLE   MOSUNNY   82  61  49 N7        30.10S
CONWAY           N/A     82  59  44 NE8       30.09S
SEARCY         MOSUNNY   81  61  50 N12       30.12S
HOT SPRINGS    MOSUNNY   81  60  48 NE9       30.12R
RUSSELLVILLE   SUNNY     83  53  35 NE10      30.10F
CLINTON        FAIR      79  57  47 NW9       30.12S
$$

ARZ036-250000-
EAST ARKANSAS

CITY           SKY/WX    TMP DP  RH WIND       PRES   REMARKS
WEST MEMPHIS   MOSUNNY   80  62  54 N10       30.08S
$$

ARZ050-053-066-070-073-250000-
SOUTHWEST ARKANSAS

CITY           SKY/WX    TMP DP  RH WIND       PRES   REMARKS
CAMDEN         CLOUDY    81  66  61 NE7       30.09S
TEXARKANA      CLOUDY    79  66  64 E6        30.09F
EL DORADO      CLOUDY    80  69  69 NE8       30.09S
DE QUEEN       PTSUNNY   81  67  62 E6        30.08S
$$

ARZ056-057-069-250000-
SOUTHEAST ARKANSAS

CITY           SKY/WX    TMP DP  RH WIND       PRES   REMARKS
PINE BLUFF     PTSUNNY   78  64  61 N7        30.11R
STUTTGART      MOSUNNY  N/A N/A N/A NE7       30.11S
MONTICELLO     CLOUDY    80  66  62 N5        30.09R

$$






USA.gov is the U.S. government's official web portal to all federal, state and local government web resources and services.